User: anonymous   Login
Location: Prague
(50.0830°N, 14.4670°E)
Time: 21:30:08
(UTC+02:00)
Language:

Envisat - Orbit

View from above orbital plane
View from above orbital plane
View from above satellite
View from above satellite

Ground track
Ground track

The orbit data is extracted from the following two-line orbital elements,

1 27386U 02009A   21300.58869963  .00000073  00000-0  37638-4 0  9998
2 27386  98.1609 287.9690 0001240  91.6498  19.4586 14.38049753 29992
Epoch (UTC): 27 October 2021 14:07:43
Eccentricity: 0.0001240
inclination: 98.1609°
perigee height: 764 km
apogee height: 766 km
right ascension of ascending node: 287.9690°
argument of perigee: 91.6498°
revolutions per day: 14.38049753
mean anomaly at epoch: 19.4586°
orbit number at epoch: 2999

The dashed part of the orbit path shows where the satellite is in the earth's shadow,  

DLR